Time,TemperatureF,DewpointF,PressureIn,WindDirection,WindDirectionDegrees,WindSpeedMPH,WindSpeedGustMPH,Humidity,HourlyPrecipIn,Conditions,Clouds,dailyrainin,SoftwareType,DateUTC
2013-02-19 00:02:00,41.0,37.0,29.50,SE,134,6.0,-999.0,84,-99.99,,,-99.99,,2013-02-19 05:02:00,
2013-02-19 00:13:00,41.0,37.0,29.50,SE,134,6.0,-999.0,84,-99.99,,,-99.99,,2013-02-19 05:13:00,
2013-02-19 00:22:00,41.0,36.0,29.49,SSE,165,6.0,-999.0,83,-99.99,,,-99.99,,2013-02-19 05:22:00,
2013-02-19 00:32:00,42.0,37.0,29.48,SSE,163,6.0,-999.0,82,-99.99,,,-99.99,,2013-02-19 05:32:00,
2013-02-19 00:43:00,42.0,37.0,29.48,SSE,163,6.0,-999.0,82,-99.99,,,-99.99,,2013-02-19 05:43:00,
2013-02-19 00:52:00,43.0,37.0,29.47,SE,139,7.0,-999.0,79,-99.99,,,-99.99,,2013-02-19 05:52:00,
2013-02-19 01:03:00,44.0,37.0,29.46,SE,146,10.0,-999.0,77,-99.99,,,-99.99,,2013-02-19 06:03:00,
2013-02-19 01:12:00,44.0,37.0,29.46,SE,146,10.0,-999.0,77,-99.99,,,-99.99,,2013-02-19 06:12:00,
2013-02-19 01:22:00,44.0,37.0,29.45,South,173,11.0,-999.0,76,-99.99,,,-99.99,,2013-02-19 06:22:00,
2013-02-19 01:32:00,44.0,38.0,29.44,SSE,161,11.0,-999.0,78,-99.99,,,-99.99,,2013-02-19 06:32:00,
2013-02-19 01:42:00,44.0,38.0,29.44,SSE,161,11.0,-999.0,78,-99.99,,,-99.99,,2013-02-19 06:42:00,
2013-02-19 01:52:00,43.0,38.0,29.42,South,170,12.0,-999.0,82,-99.99,,,-99.99,,2013-02-19 06:52:00,
2013-02-19 02:02:00,43.0,39.0,29.40,South,170,10.0,-999.0,85,-99.99,,,-99.99,,2013-02-19 07:02:00,
2013-02-19 02:12:00,43.0,39.0,29.40,South,170,10.0,-999.0,85,-99.99,,,-99.99,,2013-02-19 07:12:00,
2013-02-19 02:22:00,42.0,39.0,29.39,South,173,12.0,-999.0,88,-99.99,,,-99.99,,2013-02-19 07:22:00,
2013-02-19 02:32:00,42.0,39.0,29.38,SSE,168,13.0,-999.0,89,-99.99,,,-99.99,,2013-02-19 07:32:00,
2013-02-19 02:42:00,42.0,39.0,29.38,SSE,168,13.0,-999.0,89,-99.99,,,-99.99,,2013-02-19 07:42:00,
2013-02-19 02:52:00,42.0,39.0,29.37,South,175,13.0,-999.0,89,-99.99,,,-99.99,,2013-02-19 07:52:00,
2013-02-19 03:02:00,42.0,39.0,29.35,South,188,12.0,-999.0,90,-99.99,,,-99.99,,2013-02-19 08:02:00,
2013-02-19 03:11:00,42.0,39.0,29.35,South,188,12.0,-999.0,90,-99.99,,,-99.99,,2013-02-19 08:11:00,
2013-02-19 03:22:00,42.0,40.0,29.34,South,171,12.0,-999.0,91,-99.99,,,-99.99,,2013-02-19 08:22:00,
2013-02-19 03:32:00,41.0,39.0,29.33,SSE,152,12.0,-999.0,92,-99.99,,,-99.99,,2013-02-19 08:32:00,
2013-02-19 03:42:00,41.0,39.0,29.33,SSE,152,12.0,-999.0,92,-99.99,,,-99.99,,2013-02-19 08:42:00,
2013-02-19 03:52:00,41.0,39.0,29.31,South,173,12.0,-999.0,92,-99.99,,,-99.99,,2013-02-19 08:52:00,
2013-02-19 04:02:00,41.0,39.0,29.31,South,173,12.0,-999.0,92,-99.99,,,-99.99,,2013-02-19 09:02:00,
2013-02-19 04:11:00,41.0,39.0,29.31,South,173,12.0,-999.0,92,-99.99,,,-99.99,,2013-02-19 09:11:00,
2013-02-19 04:22:00,41.0,39.0,29.29,South,169,12.0,-999.0,92,-99.99,,,-99.99,,2013-02-19 09:22:00,
2013-02-19 04:32:00,41.0,39.0,29.28,SSE,161,10.0,-999.0,92,-99.99,,,-99.99,,2013-02-19 09:32:00,
2013-02-19 04:42:00,41.0,39.0,29.28,SSE,161,10.0,-999.0,92,-99.99,,,-99.99,,2013-02-19 09:42:00,
2013-02-19 04:52:00,41.0,39.0,29.28,SSW,210,10.0,-999.0,93,-99.99,,,-99.99,,2013-02-19 09:52:00,
2013-02-19 05:02:00,41.0,39.0,29.28,South,182,10.0,-999.0,93,-99.99,,,-99.99,,2013-02-19 10:02:00,
2013-02-19 05:11:00,41.0,39.0,29.28,South,182,10.0,-999.0,93,-99.99,,,-99.99,,2013-02-19 10:11:00,
2013-02-19 05:22:00,40.0,38.0,29.28,South,184,11.0,-999.0,94,-99.99,,,-99.99,,2013-02-19 10:22:00,
2013-02-19 05:32:00,39.0,37.0,29.28,SW,221,13.0,-999.0,92,-99.99,,,-99.99,,2013-02-19 10:32:00,
2013-02-19 05:42:00,39.0,37.0,29.28,SW,221,13.0,-999.0,92,-99.99,,,-99.99,,2013-02-19 10:42:00,
2013-02-19 05:52:00,38.0,36.0,29.30,SSW,213,15.0,-999.0,91,-99.99,,,-99.99,,2013-02-19 10:52:00,
2013-02-19 06:01:00,37.0,34.0,29.31,SW,215,14.0,-999.0,90,-99.99,,,-99.99,,2013-02-19 11:01:00,
2013-02-19 06:11:00,37.0,34.0,29.31,SW,215,14.0,-999.0,90,-99.99,,,-99.99,,2013-02-19 11:11:00,
2013-02-19 06:22:00,36.0,33.0,29.32,WSW,244,11.0,-999.0,89,-99.99,,,-99.99,,2013-02-19 11:22:00,
2013-02-19 06:32:00,36.0,33.0,29.34,West,261,11.0,-999.0,89,-99.99,,,-99.99,,2013-02-19 11:32:00,
2013-02-19 06:42:00,36.0,33.0,29.34,West,261,11.0,-999.0,89,-99.99,,,-99.99,,2013-02-19 11:42:00,
2013-02-19 06:52:00,36.0,33.0,29.34,West,274,13.0,-999.0,88,-99.99,,,-99.99,,2013-02-19 11:52:00,
2013-02-19 07:02:00,35.0,32.0,29.35,WSW,239,10.0,-999.0,89,-99.99,,,-99.99,,2013-02-19 12:02:00,
2013-02-19 07:12:00,35.0,32.0,29.35,WSW,239,10.0,-999.0,89,-99.99,,,-99.99,,2013-02-19 12:12:00,
2013-02-19 07:22:00,35.0,32.0,29.35,West,266,10.0,-999.0,89,-99.99,,,-99.99,,2013-02-19 12:22:00,
2013-02-19 07:32:00,35.0,32.0,29.36,SW,230,11.0,-999.0,89,-99.99,,,-99.99,,2013-02-19 12:32:00,
2013-02-19 07:42:00,35.0,32.0,29.36,SW,230,11.0,-999.0,89,-99.99,,,-99.99,,2013-02-19 12:42:00,
2013-02-19 07:52:00,35.0,32.0,29.36,WSW,248,11.0,-999.0,88,-99.99,,,-99.99,,2013-02-19 12:52:00,
2013-02-19 08:02:00,34.0,31.0,29.37,SW,228,12.0,-999.0,87,-99.99,,,-99.99,,2013-02-19 13:02:00,
2013-02-19 08:11:00,34.0,31.0,29.37,SW,228,12.0,-999.0,87,-99.99,,,-99.99,,2013-02-19 13:11:00,
2013-02-19 08:22:00,34.0,31.0,29.38,WSW,246,12.0,-999.0,87,-99.99,,,-99.99,,2013-02-19 13:22:00,
2013-02-19 08:32:00,34.0,30.0,29.39,SW,221,12.0,-999.0,86,-99.99,,,-99.99,,2013-02-19 13:32:00,
2013-02-19 08:42:00,34.0,30.0,29.39,SW,221,12.0,-999.0,86,-99.99,,,-99.99,,2013-02-19 13:42:00,
2013-02-19 08:52:00,33.0,30.0,29.41,SW,219,14.0,-999.0,87,-99.99,,,-99.99,,2013-02-19 13:52:00,
2013-02-19 09:02:00,33.0,30.0,29.41,SW,219,14.0,-999.0,87,-99.99,,,-99.99,,2013-02-19 14:02:00,
2013-02-19 09:12:00,33.0,30.0,29.41,SW,219,14.0,-999.0,87,-99.99,,,-99.99,,2013-02-19 14:12:00,
2013-02-19 09:22:00,32.0,29.0,29.42,SW,226,12.0,-999.0,87,-99.99,,,-99.99,,2013-02-19 14:22:00,
2013-02-19 09:33:00,31.0,27.0,29.43,SSW,207,16.0,-999.0,86,-99.99,,,-99.99,,2013-02-19 14:33:00,
2013-02-19 09:42:00,31.0,27.0,29.43,SSW,207,16.0,-999.0,86,-99.99,,,-99.99,,2013-02-19 14:42:00,
2013-02-19 09:52:00,31.0,27.0,29.43,SSW,205,16.0,-999.0,85,-99.99,,,-99.99,,2013-02-19 14:52:00,
2013-02-19 10:02:00,31.0,27.0,29.44,SW,218,13.0,-999.0,85,-99.99,,,-99.99,,2013-02-19 15:02:00,
2013-02-19 10:11:00,31.0,27.0,29.44,SW,218,13.0,-999.0,85,-99.99,,,-99.99,,2013-02-19 15:11:00,
2013-02-19 10:22:00,31.0,26.0,29.44,SW,235,14.0,-999.0,83,-99.99,,,-99.99,,2013-02-19 15:22:00,
2013-02-19 10:32:00,31.0,26.0,29.44,WSW,241,15.0,-999.0,81,-99.99,,,-99.99,,2013-02-19 15:32:00,
2013-02-19 10:42:00,31.0,26.0,29.44,WSW,241,15.0,-999.0,81,-99.99,,,-99.99,,2013-02-19 15:42:00,
2013-02-19 10:52:00,30.0,25.0,29.46,SSW,213,12.0,-999.0,81,-99.99,,,-99.99,,2013-02-19 15:52:00,
2013-02-19 11:02:00,30.0,25.0,29.46,WSW,242,17.0,-999.0,81,-99.99,,,-99.99,,2013-02-19 16:02:00,
2013-02-19 11:11:00,30.0,25.0,29.46,WSW,242,17.0,-999.0,81,-99.99,,,-99.99,,2013-02-19 16:11:00,
2013-02-19 11:22:00,29.0,24.0,29.46,SW,226,15.0,-999.0,81,-99.99,,,-99.99,,2013-02-19 16:22:00,
2013-02-19 11:32:00,29.0,24.0,29.47,SSW,210,15.0,-999.0,80,-99.99,,,-99.99,,2013-02-19 16:32:00,
2013-02-19 11:42:00,29.0,24.0,29.47,SSW,210,15.0,-999.0,80,-99.99,,,-99.99,,2013-02-19 16:42:00,
2013-02-19 11:52:00,29.0,24.0,29.47,WSW,243,14.0,-999.0,80,-99.99,,,-99.99,,2013-02-19 16:52:00,
2013-02-19 12:01:00,29.0,24.0,29.47,SSW,213,16.0,-999.0,80,-99.99,,,-99.99,,2013-02-19 17:01:00,
2013-02-19 12:11:00,29.0,24.0,29.47,SSW,213,16.0,-999.0,80,-99.99,,,-99.99,,2013-02-19 17:11:00,
2013-02-19 12:21:00,28.0,23.0,29.47,SW,230,15.0,-999.0,81,-99.99,,,-99.99,,2013-02-19 17:21:00,
2013-02-19 12:32:00,29.0,24.0,29.47,South,189,14.0,-999.0,80,-99.99,,,-99.99,,2013-02-19 17:32:00,
2013-02-19 12:42:00,29.0,24.0,29.47,South,189,14.0,-999.0,80,-99.99,,,-99.99,,2013-02-19 17:42:00,
2013-02-19 12:52:00,28.0,23.0,29.47,SW,219,13.0,-999.0,81,-99.99,,,-99.99,,2013-02-19 17:52:00,
2013-02-19 13:02:00,28.0,23.0,29.47,SW,232,11.0,-999.0,80,-99.99,,,-99.99,,2013-02-19 18:02:00,
2013-02-19 13:11:00,28.0,23.0,29.47,SW,232,11.0,-999.0,80,-99.99,,,-99.99,,2013-02-19 18:11:00,
2013-02-19 13:21:00,28.0,23.0,29.48,SSW,203,13.0,-999.0,81,-99.99,,,-99.99,,2013-02-19 18:21:00,
2013-02-19 13:32:00,28.0,22.0,29.48,SW,218,15.0,-999.0,79,-99.99,,,-99.99,,2013-02-19 18:32:00,
2013-02-19 13:42:00,28.0,23.0,29.48,SSW,210,13.0,-999.0,80,-99.99,,,-99.99,,2013-02-19 18:42:00,
2013-02-19 13:52:00,28.0,23.0,29.48,SSW,210,13.0,-999.0,80,-99.99,,,-99.99,,2013-02-19 18:52:00,
2013-02-19 14:01:00,28.0,23.0,29.48,SW,218,11.0,-999.0,80,-99.99,,,-99.99,,2013-02-19 19:01:00,
2013-02-19 14:11:00,28.0,23.0,29.48,SW,218,11.0,-999.0,80,-99.99,,,-99.99,,2013-02-19 19:11:00,
2013-02-19 14:21:00,29.0,24.0,29.49,WSW,247,11.0,-999.0,81,-99.99,,,-99.99,,2013-02-19 19:21:00,
2013-02-19 14:32:00,29.0,23.0,29.49,SSW,207,12.0,-999.0,79,-99.99,,,-99.99,,2013-02-19 19:32:00,
2013-02-19 14:42:00,29.0,23.0,29.49,SSW,207,12.0,-999.0,79,-99.99,,,-99.99,,2013-02-19 19:42:00,
2013-02-19 14:51:00,29.0,23.0,29.50,WSW,249,12.0,-999.0,78,-99.99,,,-99.99,,2013-02-19 19:51:00,
2013-02-19 15:02:00,28.0,23.0,29.51,WSW,238,13.0,-999.0,80,-99.99,,,-99.99,,2013-02-19 20:02:00,
2013-02-19 15:12:00,28.0,23.0,29.51,WSW,238,13.0,-999.0,80,-99.99,,,-99.99,,2013-02-19 20:12:00,
2013-02-19 15:22:00,28.0,23.0,29.52,WSW,255,12.0,-999.0,82,-99.99,,,-99.99,,2013-02-19 20:22:00,
2013-02-19 15:32:00,28.0,22.0,29.53,West,263,12.0,-999.0,78,-99.99,,,-99.99,,2013-02-19 20:32:00,
2013-02-19 15:42:00,28.0,22.0,29.53,West,263,12.0,-999.0,78,-99.99,,,-99.99,,2013-02-19 20:42:00,
2013-02-19 15:52:00,28.0,20.0,29.54,WSW,242,15.0,-999.0,73,-99.99,,,-99.99,,2013-02-19 20:52:00,
2013-02-19 16:02:00,28.0,20.0,29.54,WSW,242,15.0,-999.0,73,-99.99,,,-99.99,,2013-02-19 21:02:00,
2013-02-19 16:11:00,28.0,20.0,29.54,WSW,242,15.0,-999.0,73,-99.99,,,-99.99,,2013-02-19 21:11:00,
2013-02-19 16:21:00,27.0,20.0,29.57,WSW,257,14.0,-999.0,76,-99.99,,,-99.99,,2013-02-19 21:21:00,
2013-02-19 16:32:00,27.0,20.0,29.58,West,275,16.0,-999.0,74,-99.99,,,-99.99,,2013-02-19 21:32:00,
2013-02-19 16:42:00,27.0,20.0,29.58,West,275,16.0,-999.0,74,-99.99,,,-99.99,,2013-02-19 21:42:00,
2013-02-19 16:51:00,26.0,19.0,29.60,West,277,14.0,-999.0,74,-99.99,,,-99.99,,2013-02-19 21:51:00,
2013-02-19 17:02:00,26.0,18.0,29.61,West,279,15.0,-999.0,71,-99.99,,,-99.99,,2013-02-19 22:02:00,
2013-02-19 17:11:00,26.0,18.0,29.61,West,279,15.0,-999.0,71,-99.99,,,-99.99,,2013-02-19 22:11:00,
2013-02-19 17:21:00,25.0,19.0,29.63,West,271,17.0,-999.0,76,-99.99,,,-99.99,,2013-02-19 22:21:00,
2013-02-19 17:32:00,24.0,20.0,29.64,WNW,292,15.0,-999.0,83,-99.99,,,-99.99,,2013-02-19 22:32:00,
2013-02-19 17:42:00,24.0,20.0,29.64,WNW,292,15.0,-999.0,83,-99.99,,,-99.99,,2013-02-19 22:42:00,
2013-02-19 17:52:00,24.0,18.0,29.65,WSW,242,14.0,-999.0,78,-99.99,,,-99.99,,2013-02-19 22:52:00,
2013-02-19 18:01:00,24.0,19.0,29.66,WSW,240,14.0,-999.0,82,-99.99,,,-99.99,,2013-02-19 23:01:00,
2013-02-19 18:11:00,24.0,19.0,29.66,WSW,240,14.0,-999.0,82,-99.99,,,-99.99,,2013-02-19 23:11:00,
2013-02-19 18:21:00,24.0,19.0,29.67,WSW,246,12.0,-999.0,82,-99.99,,,-99.99,,2013-02-19 23:21:00,
2013-02-19 18:32:00,24.0,19.0,29.68,WSW,249,12.0,-999.0,81,-99.99,,,-99.99,,2013-02-19 23:32:00,
2013-02-19 18:42:00,24.0,19.0,29.68,WSW,249,12.0,-999.0,81,-99.99,,,-99.99,,2013-02-19 23:42:00,
2013-02-19 18:52:00,23.0,18.0,29.69,NW,304,13.0,-999.0,80,-99.99,,,-99.99,,2013-02-19 23:52:00,
2013-02-19 19:02:00,23.0,17.0,29.70,WNW,289,12.0,-999.0,79,-99.99,,,-99.99,,2013-02-20 00:02:00,
2013-02-19 19:11:00,23.0,17.0,29.70,WNW,289,12.0,-999.0,79,-99.99,,,-99.99,,2013-02-20 00:11:00,
2013-02-19 19:21:00,23.0,19.0,29.71,SW,235,10.0,-999.0,83,-99.99,,,-99.99,,2013-02-20 00:21:00,
2013-02-19 19:32:00,24.0,17.0,29.72,West,275,13.0,-999.0,73,-99.99,,,-99.99,,2013-02-20 00:32:00,
2013-02-19 19:42:00,24.0,17.0,29.72,West,275,13.0,-999.0,73,-99.99,,,-99.99,,2013-02-20 00:42:00,
2013-02-19 19:52:00,23.0,15.0,29.72,WSW,257,14.0,-999.0,70,-99.99,,,-99.99,,2013-02-20 00:52:00,
2013-02-19 20:02:00,23.0,14.0,29.74,West,277,14.0,-999.0,68,-99.99,,,-99.99,,2013-02-20 01:02:00,
2013-02-19 20:11:00,23.0,14.0,29.74,West,277,14.0,-999.0,68,-99.99,,,-99.99,,2013-02-20 01:11:00,
2013-02-19 20:21:00,23.0,14.0,29.74,West,261,15.0,-999.0,67,-99.99,,,-99.99,,2013-02-20 01:21:00,
2013-02-19 20:32:00,23.0,14.0,29.75,WNW,287,13.0,-999.0,69,-99.99,,,-99.99,,2013-02-20 01:32:00,
2013-02-19 20:42:00,23.0,14.0,29.75,WNW,287,13.0,-999.0,69,-99.99,,,-99.99,,2013-02-20 01:42:00,
2013-02-19 20:52:00,23.0,15.0,29.76,West,281,11.0,-999.0,72,-99.99,,,-99.99,,2013-02-20 01:52:00,
2013-02-19 21:02:00,23.0,15.0,29.76,West,281,11.0,-999.0,72,-99.99,,,-99.99,,2013-02-20 02:02:00,
2013-02-19 21:11:00,23.0,15.0,29.76,West,281,11.0,-999.0,72,-99.99,,,-99.99,,2013-02-20 02:11:00,
2013-02-19 21:21:00,22.0,13.0,29.77,West,280,15.0,-999.0,69,-99.99,,,-99.99,,2013-02-20 02:21:00,
2013-02-19 21:32:00,22.0,13.0,29.78,West,274,14.0,-999.0,67,-99.99,,,-99.99,,2013-02-20 02:32:00,
2013-02-19 21:42:00,22.0,13.0,29.78,West,274,14.0,-999.0,67,-99.99,,,-99.99,,2013-02-20 02:42:00,
2013-02-19 21:52:00,21.0,11.0,29.79,West,278,17.0,-999.0,66,-99.99,,,-99.99,,2013-02-20 02:52:00,
2013-02-19 22:02:00,21.0,12.0,29.79,WNW,284,16.0,-999.0,67,-99.99,,,-99.99,,2013-02-20 03:02:00,
2013-02-19 22:12:00,21.0,12.0,29.79,WNW,284,16.0,-999.0,67,-99.99,,,-99.99,,2013-02-20 03:12:00,
2013-02-19 22:22:00,20.0,11.0,29.80,WNW,289,17.0,-999.0,67,-99.99,,,-99.99,,2013-02-20 03:22:00,
2013-02-19 22:32:00,20.0,11.0,29.81,NW,304,16.0,-999.0,67,-99.99,,,-99.99,,2013-02-20 03:32:00,
2013-02-19 22:42:00,20.0,11.0,29.81,NW,304,16.0,-999.0,67,-99.99,,,-99.99,,2013-02-20 03:42:00,
2013-02-19 22:52:00,20.0,11.0,29.81,WNW,286,17.0,-999.0,66,-99.99,,,-99.99,,2013-02-20 03:52:00,
2013-02-19 23:01:00,20.0,11.0,29.82,West,267,17.0,-999.0,66,-99.99,,,-99.99,,2013-02-20 04:01:00,
2013-02-19 23:11:00,20.0,11.0,29.82,West,267,17.0,-999.0,66,-99.99,,,-99.99,,2013-02-20 04:11:00,
2013-02-19 23:21:00,19.0,10.0,29.82,WNW,295,17.0,-999.0,68,-99.99,,,-99.99,,2013-02-20 04:21:00,
2013-02-19 23:32:00,19.0,10.0,29.83,West,281,14.0,-999.0,66,-99.99,,,-99.99,,2013-02-20 04:32:00,
2013-02-19 23:42:00,19.0,10.0,29.83,West,281,14.0,-999.0,66,-99.99,,,-99.99,,2013-02-20 04:42:00,
2013-02-19 23:52:00,19.0,9.0,29.83,WNW,284,16.0,-999.0,64,-99.99,,,-99.99,,2013-02-20 04:52:00,